Kenosha, WI

9:40 PM CST on February 12, 2016 (GMT -0600)
Kenosha Regional

Weather History for KENW - March, 2013

Change the Weather History Date:

Sunday, March 3, 2013

  Actual Average Record
Temperature  
Mean Temperature 18 °F -  
Max Temperature 28 °F 38 °F 73 °F (1974)
Min Temperature 8 °F 24 °F -4 °F (2014)
Degree Days  
Heating Degree Days 47    
Moisture  
Dew Point 7 °F    
Average Humidity 67    
Maximum Humidity 84    
Minimum Humidity 41    
Precipitation  
Precipitation 0.00 in - - ()
Sea Level Pressure  
Sea Level Pressure 30.15 in    
Wind  
Wind Speed 5 mph (NW)    
Max Wind Speed 7 mph    
Max Gust Speed -    
Visibility 10 miles    
Events      
Averages and records for this station are not official NWS values.
T = Trace of Precipitation, MM = Missing Value Source: NWS Daily Summary

Daily Weather History Graph

Daily Weather History Graph

Search for Another Location

Airport or City:

Trip Planner

Search our weather history database for the weather conditions in past years. The results will help you decide how hot, cold, wet, or windy it might be!

Date:

Astronomy

Mar. 03, 2013 Rise Set
Actual Time 6:23 AM CST 5:44 PM CST
Civil Twilight 5:55 AM CST 6:12 PM CST
Nautical Twilight 5:22 AM CST 6:45 PM CST
Astronomical Twilight 4:50 AM CST 7:17 PM CST
Moon No Moon Rise 9:29 AM CST (3/3)
Length of Visible Light 12h 17m
Length of Day
11h 20m
Waning Gibbous, 63% of the Moon is Illuminated
Mar 3
Waning Gibbous
Mar 4
Last Quarter
Mar 11
New
Mar 19
First Quarter
Mar 27
Full

Hourly Weather History & Observations

Time (CST) Temp. Windchill Dew Point Humidity Pressure Visibility Wind Dir Wind Speed Gust Speed Precip Events Conditions
12:53 AM 10.9 °F 0.2 °F 6.1 °F 81% 30.17 in 10.0 mi WNW 6.9 mph - N/A   Clear
1:53 AM 10.9 °F 1.4 °F 6.1 °F 81% 30.17 in 10.0 mi WNW 5.8 mph - N/A   Clear
2:53 AM 10.0 °F 0.4 °F 5.0 °F 80% 30.15 in 10.0 mi WNW 5.8 mph - N/A   Clear
3:53 AM 10.0 °F 0.4 °F 6.1 °F 84% 30.15 in 10.0 mi WNW 5.8 mph - N/A   Scattered Clouds
4:53 AM 12.0 °F 1.5 °F 6.1 °F 77% 30.16 in 10.0 mi NW 6.9 mph - N/A   Clear
6:53 AM 9.0 °F -0.9 °F 3.9 °F 80% 30.17 in 10.0 mi WNW 5.8 mph - N/A   Clear
7:53 AM 10.9 °F 0.2 °F 5.0 °F 77% 30.18 in 10.0 mi WNW 6.9 mph - N/A   Clear
8:53 AM 15.1 °F 7.7 °F 7.0 °F 70% 30.17 in 10.0 mi NW 4.6 mph - N/A   Clear
9:53 AM 19.0 °F 13.9 °F 7.0 °F 59% 30.17 in 10.0 mi NW 3.5 mph - N/A   Clear
10:53 AM 24.1 °F 18.2 °F 8.1 °F 51% 30.16 in 10.0 mi NNW 4.6 mph - N/A   Clear
11:53 AM 25.0 °F 18.1 °F 8.1 °F 49% 30.15 in 10.0 mi NW 5.8 mph - N/A   Clear
12:53 PM 27.0 °F 21.6 °F 9.0 °F 47% 30.13 in 10.0 mi West 4.6 mph - N/A   Clear
1:53 PM 28.0 °F 24.2 °F 9.0 °F 45% 30.12 in 10.0 mi WNW 3.5 mph - N/A   Clear
2:53 PM 28.9 °F - 8.1 °F 41% 30.11 in 10.0 mi Calm Calm - N/A   Clear
4:53 PM 24.1 °F 17.0 °F 12.0 °F 60% 30.12 in 10.0 mi ENE 5.8 mph - N/A   Clear
5:53 PM 21.0 °F 16.2 °F 9.0 °F 60% 30.13 in 10.0 mi ENE 3.5 mph - N/A   Clear
6:53 PM 18.0 °F 12.7 °F 9.0 °F 68% 30.14 in 10.0 mi ENE 3.5 mph - N/A   Clear
7:53 PM 21.0 °F 16.2 °F 10.0 °F 63% 30.14 in 10.0 mi NNE 3.5 mph - N/A   Clear
8:53 PM 14.0 °F - 7.0 °F 74% 30.14 in 10.0 mi Calm Calm - N/A   Clear
9:53 PM 10.9 °F - 6.1 °F 81% 30.14 in 10.0 mi Calm Calm - N/A   Clear
10:53 PM 8.1 °F - 3.0 °F 80% 30.15 in 10.0 mi Calm Calm - N/A   Clear
11:53 PM 8.1 °F - 1.9 °F 76% 30.14 in 10.0 mi Calm Calm - N/A   Clear